Location: Oberstdorf
(47.4188°N, 10.2969°E)
Time: 04:29:37
(UTC+01:00)

ISS - Pass Details

Date: 12 January 2018
Orbit: 401 x 406 km, 51.6° (Epoch: 17 January)

Event Time Altitude Azimuth Distance (km) Brightness Sun altitude
Exits shadow 04:52:15 11° 83° (E) 1,426 -0.2 -31.6°
Drops below altitude 10° 04:52:21 10° 84° (E) 1,464 -0.1 -31.6°
Sets 04:54:30 0° 91° (E) 2,324 1.2 -31.3°
